{"data":{"norad_id":69159,"epoch":"2026-09-20T00:27:35.588160Z","epoch_age_seconds":64670,"freshness":"FRESH","line1":"1 69159U 26111M   26263.01916190  .00010653  00000+0  32577-3 0  9998","line2":"2 69159  53.1580  68.0832 0000926  81.2556 278.8551 15.34418868 18828","mean_motion":15.34418868,"eccentricity":9.26e-5,"inclination_deg":53.158,"raan_deg":68.0832,"arg_perigee_deg":81.2556,"mean_anomaly_deg":278.8551,"bstar":0.00032577,"rev_number":1882,"period_min":93.846604081253,"perigee_km":462.01370449619,"apogee_km":463.28061772283,"semimajor_km":6840.7841611095,"source":"CELESTRAK","updated_at":"2026-09-20T09:00:44.091589Z"}}